Theta_e
303 303 304 304 304 304 305 305 306 305 304 305 304 308 305 304 297 310 314 317 311 303 296 297 295 296 298 300 298 299 297 295 296 295 298 296 299 298 296 296 295 297 296 296 295 296 293 297 295 296 296 299 301 303 303 303 302 302 299 300 301 304 293 292 293 297 299 300 302 302 302 301 298 298 299 297 295 295 294 294 295 291 291 288 289 286 292
303 303 304 304 304 305 305 305 305 305 304 304 305 304 304 302 303 305 312 316 310 299 290 289 291 294 298 298 297 299 297 296 295 295 297 296 297 296 296 297 298 296 299 297 294 298 289 295 297 295 300 297 304 304 303 304 300 299 298 296 301 292 295 293 289 288 291 294 296 296 300 299 296 296 299 298 299 299 299 298 299 289 292 291 288 282 288
303 303 304 304 304 305 305 305 305 305 305 305 305 301 305 304 306 303 309 311 308 297 298 294 291 293 295 294 294 295 296 297 297 296 296 298 297 297 296 297 298 297 298 296 297 298 295 294 297 299 298 299 304 303 303 303 301 303 305 307 303 294 294 292 285 283 281 280 282 285 286 290 295 297 298 298 297 300 301 289 293 287 291 293 289 289 297
303 303 303 303 304 304 305 305 305 305 305 304 306 305 303 298 289 298 299 304 303 301 304 300 295 292 294 291 294 296 294 297 298 298 297 298 298 298 297 298 298 296 296 294 294 294 298 295 294 298 296 298 301 303 303 302 302 307 311 307 302 297 299 296 293 290 288 291 292 296 296 294 291 293 296 297 297 298 299 297 288 287 292 289 294 294 296
303 303 303 303 304 304 305 305 305 304 304 304 305 307 306 301 293 293 291 299 300 298 301 296 297 291 296 289 294 293 294 296 296 299 294 298 298 298 297 297 294 294 294 294 293 295 295 297 295 295 296 298 300 304 303 303 305 308 303 307 300 298 291 295 296 295 294 296 295 296 296 293 294 293 294 297 297 299 297 291 289 296 291 284 293 298 296
302 303 303 303 304 304 305 305 305 304 304 304 310 303 302 292 297 300 301 295 290 292 293 297 295 297 297 293 297 292 292 294 292 296 297 297 299 294 295 296 296 295 294 295 290 293 294 295 291 295 297 297 298 298 302 301 304 304 301 304 300 297 290 296 296 294 296 297 296 297 295 294 294 294 295 295 297 298 295 295 296 297 291 288 296 299 296
302 303 303 303 304 304 304 305 305 304 303 305 311 299 302 301 300 301 304 294 296 296 297 297 296 294 296 294 296 292 292 289 294 295 295 294 296 296 288 292 295 295 296 295 292 294 290 289 296 297 297 298 298 296 300 302 303 302 301 301 304 299 293 296 296 294 294 295 295 295 295 295 294 294 294 295 296 296 296 296 299 298 296 299 298 297 297
302 302 303 303 303 304 304 305 305 303 303 310 306 301 299 297 297 296 302 299 297 297 298 297 296 293 295 289 293 291 293 291 293 296 295 290 294 299 294 293 294 294 296 298 296 297 299 298 292 300 299 297 298 296 296 297 301 301 303 301 303 300 292 295 296 292 292 294 294 294 294 294 292 293 294 295 295 295 297 296 295 299 299 299 299 296 295
302 302 302 303 303 304 305 305 305 303 304 310 304 301 302 303 304 304 296 292 294 296 295 294 292 290 293 291 293 294 294 292 294 294 298 296 294 296 294 297 297 298 297 296 295 297 298 299 299 300 299 294 299 297 299 301 297 299 302 300 302 300 294 297 296 289 289 293 294 293 293 293 292 292 293 293 293 291 294 291 295 295 294 297 296 293 292
301 302 302 303 303 304 304 305 305 304 304 309 306 299 305 306 307 306 300 291 294 293 295 294 291 287 292 293 293 292 294 295 297 290 297 298 298 298 298 298 296 295 295 294 295 298 299 299 300 300 301 302 300 302 302 302 301 298 300 301 298 298 295 291 292 288 287 293 294 293 292 291 287 288 293 294 295 295 296 296 296 297 299 292 290 292 298
301 302 302 302 303 304 304 305 305 304 305 304 304 303 302 299 300 302 302 291 291 293 292 291 291 290 294 295 294 296 295 296 296 290 289 298 296 299 298 296 294 292 292 295 300 301 301 301 302 302 301 301 300 300 300 300 300 302 299 297 296 298 298 292 295 287 287 292 293 294 289 282 284 294 299 297 295 292 292 292 294 297 298 296 300 299 300
301 301 302 302 303 303 304 305 305 305 304 307 308 305 303 304 303 303 294 290 289 294 291 289 290 293 293 295 296 294 294 295 296 297 293 296 297 298 297 296 295 288 297 302 302 302 303 303 301 301 300 300 300 300 300 299 299 302 302 298 294 294 294 293 297 289 287 291 292 286 280 283 292 298 299 299 298 296 293 294 296 297 297 298 298 299 298
301 301 302 302 303 303 304 305 305 305 305 307 307 304 305 308 304 302 297 292 288 292 290 290 293 293 293 293 294 295 296 298 298 298 297 296 295 297 297 295 294 294 300 300 301 301 298 297 297 297 297 298 298 298 298 298 298 299 300 302 297 291 292 292 290 291 290 288 287 279 280 290 296 296 298 300 299 297 295 293 295 296 296 296 294 294 293
300 301 301 302 302 303 304 305 305 305 305 306 306 309 305 307 304 303 299 293 288 293 294 293 293 293 292 291 293 294 296 296 297 299 295 298 295 295 297 297 297 300 300 301 299 299 295 296 290 292 292 293 294 292 295 297 297 298 298 299 300 298 296 293 288 291 284 287 286 284 289 290 291 293 294 295 293 293 291 286 291 296 296 296 293 293 294
301 301 301 302 302 303 304 304 305 305 306 305 308 307 305 307 308 305 305 298 289 291 293 287 291 293 294 292 292 292 291 293 293 292 296 297 294 295 297 298 301 300 301 298 295 298 292 291 287 287 289 287 284 286 294 291 297 298 298 298 299 301 292 290 288 286 289 286 284 285 283 281 285 291 295 298 298 299 299 293 289 296 296 297 295 293 293
301 301 301 302 302 303 304 304 305 305 305 305 308 306 305 309 310 308 305 296 293 286 290 295 296 295 293 293 294 292 290 290 291 292 292 292 292 294 297 298 301 301 299 297 297 293 291 287 285 285 283 285 289 286 285 292 290 295 297 297 297 298 298 295 289 287 287 286 282 282 280 282 287 290 293 295 296 297 299 292 286 294 296 296 296 294 295
300 301 301 302 302 303 303 304 304 305 305 304 305 307 304 309 307 305 303 297 295 288 295 295 298 297 294 292 295 292 293 290 292 288 287 289 291 293 295 298 303 300 296 295 294 291 289 287 290 289 289 290 286 285 290 289 287 289 294 295 294 294 293 292 288 285 287 285 283 281 282 282 289 293 293 295 296 298 294 282 282 294 295 296 296 295 295
300 301 301 301 302 302 303 304 304 305 305 305 306 307 303 310 311 308 304 297 291 291 295 296 294 292 291 293 292 295 296 295 295 295 291 293 293 292 293 296 293 298 298 290 292 288 288 287 285 285 284 291 291 291 282 288 285 286 287 289 288 289 289 289 285 286 286 284 284 283 285 289 293 294 295 296 299 294 283 280 286 296 297 298 297 297 297
300 301 301 301 302 302 303 304 304 305 305 305 307 309 303 308 309 309 304 297 294 288 294 297 298 295 297 298 296 296 296 295 294 291 289 289 290 294 296 296 297 290 296 291 292 288 287 287 291 289 286 288 290 285 290 286 285 290 290 287 287 287 287 287 289 285 285 285 283 282 284 288 292 295 295 296 292 283 281 290 298 297 296 298 297 296 295
301 301 301 301 302 302 303 304 304 305 305 305 306 306 305 307 309 309 301 296 296 292 294 295 295 293 296 293 291 291 293 294 294 292 290 287 294 296 294 290 294 295 293 294 286 289 286 285 287 290 286 287 289 292 287 288 292 288 288 290 287 287 284 283 283 286 286 286 283 281 277 287 295 294 293 296 287 286 293 296 296 297 297 296 295 295 295
301 301 301 301 302 302 303 303 304 305 305 306 305 307 303 306 310 310 309 301 297 291 292 298 298 295 296 295 296 294 294 291 292 290 292 293 296 294 285 284 289 292 288 290 286 285 287 285 288 287 290 288 289 289 284 285 288 292 290 289 289 292 285 285 286 288 282 282 279 279 286 291 296 294 287 292 293 296 297 296 293 296 296 296 295 296 296
301 301 301 301 302 302 303 303 304 305 305 305 305 310 303 305 308 308 308 305 297 293 296 299 300 298 299 299 299 299 297 296 297 297 293 291 296 293 293 294 293 293 294 295 292 290 292 290 292 287 286 288 292 286 289 284 283 288 293 291 283 292 289 289 285 290 286 284 285 290 293 294 296 296 294 294 295 297 297 297 295 295 295 297 295 295 296
301 301 301 301 301 302 303 303 304 304 305 305 305 308 303 304 304 310 309 301 302 302 303 301 300 299 300 299 300 301 301 301 300 299 298 293 291 293 291 291 292 298 297 296 291 291 290 290 286 291 288 289 287 286 289 287 285 288 285 291 291 294 295 295 291 288 293 294 294 294 294 294 294 296 296 295 296 296 296 295 293 295 296 295 294 295 295
301 301 301 301 301 302 303 303 303 304 304 305 305 306 306 306 305 306 306 301 297 293 295 299 296 291 294 294 298 301 301 300 300 301 303 301 291 290 294 295 295 297 295 296 297 293 291 290 290 290 286 290 291 286 283 283 285 288 287 288 291 293 294 292 288 291 288 283 292 292 292 294 294 294 295 296 296 296 296 295 294 295 296 295 296 295 294
301 301 301 301 301 302 302 303 303 303 304 304 305 307 309 306 305 305 302 293 293 294 288 290 292 296 299 300 300 299 300 302 303 302 301 301 298 293 291 296 300 294 294 296 298 295 292 288 289 289 285 290 291 285 290 286 285 290 285 287 289 287 294 289 290 289 286 286 291 292 294 294 295 294 293 293 294 295 295 295 295 295 296 296 295 296 294
300 301 301 301 301 302 302 303 303 303 304 304 305 306 305 302 305 307 305 305 303 298 290 288 293 299 300 298 296 298 301 302 301 301 300 300 300 300 298 299 300 302 300 300 296 291 289 289 289 289 287 287 294 287 287 289 289 291 287 287 291 290 293 286 290 287 289 292 293 293 293 293 293 294 295 295 294 294 295 295 295 294 293 294 295 295 294
300 300 300 301 301 301 302 302 303 303 303 304 304 307 306 306 307 304 301 301 298 292 292 289 293 296 298 296 298 300 300 301 301 301 299 299 299 300 300 298 297 296 296 296 295 292 291 289 288 286 288 287 292 291 290 288 289 286 286 289 293 291 287 290 288 285 284 285 288 292 286 285 290 292 294 295 296 295 295 295 294 294 294 294 294 294 294
300 300 300 300 301 301 302 302 302 303 303 304 305 307 309 305 306 305 305 304 299 293 292 290 291 295 300 297 299 300 300 301 300 300 299 298 299 299 298 297 297 295 293 292 288 289 288 286 286 289 289 292 290 288 291 290 290 289 288 288 291 289 289 289 286 285 284 290 292 292 292 292 292 293 294 295 296 295 294 293 293 294 294 294 293 292 293
300 300 300 300 301 301 302 302 302 302 303 303 306 307 308 307 309 306 304 306 305 300 297 293 295 297 289 294 300 299 300 301 300 299 299 298 298 298 297 297 295 295 295 292 290 289 288 288 289 287 287 292 290 287 289 285 284 283 287 291 291 292 294 293 292 292 292 293 293 294 292 290 292 294 295 294 295 294 293 293 294 294 294 294 293 293 292
300 300 300 300 301 301 302 302 302 303 303 304 305 305 299 300 307 305 304 305 305 303 295 291 287 288 299 298 297 298 298 299 299 300 299 297 297 297 296 297 296 296 296 291 289 286 288 289 289 293 294 296 288 287 284 286 284 285 291 291 292 292 293 293 295 292 290 294 294 294 293 294 295 295 295 295 295 294 294 293 293 293 293 294 293 293 294
300 300 300 301 301 301 302 302 302 303 303 304 303 297 294 291 300 304 303 305 307 302 296 295 289 293 293 298 298 295 297 298 298 299 298 298 298 298 298 298 296 294 290 290 289 288 289 286 287 290 292 291 288 286 285 284 283 285 289 291 291 292 292 292 295 295 294 294 294 294 294 294 295 294 294 294 294 294 294 294 294 293 292 293 293 293 292
300 300 301 301 301 301 302 302 302 303 305 305 300 297 297 297 301 304 305 306 307 303 295 290 288 289 289 293 297 298 298 299 299 299 298 299 297 297 299 297 293 296 292 290 290 290 287 288 287 289 289 290 289 286 286 285 283 284 290 291 293 292 293 293 293 294 294 294 293 292 291 291 293 292 290 293 294 293 293 293 294 293 293 293 294 293 293
300 300 301 301 301 301 302 302 302 303 306 303 304 304 302 300 302 304 304 306 305 301 301 292 287 288 287 291 297 297 297 298 297 297 294 297 296 297 294 297 297 296 299 292 288 286 291 289 288 286 290 293 286 286 284 284 286 290 291 291 292 292 292 293 293 294 293 293 293 289 288 289 291 293 294 294 294 293 293 293 293 293 293 292 292 292 292
300 301 301 301 301 301 301 301 303 302 303 301 301 305 307 302 305 303 306 307 304 302 296 290 285 286 287 295 292 295 298 293 292 294 289 296 297 296 291 294 295 289 293 289 290 289 290 289 287 287 290 287 287 285 282 286 290 290 291 292 292 292 292 291 292 292 293 293 293 293 292 292 293 293 292 292 292 293 293 293 293 292 291 291 291 292 292
301 302 302 301 301 302 301 301 305 302 300 303 303 304 306 301 301 303 305 306 294 290 289 289 290 286 287 288 287 291 298 295 291 295 290 293 299 293 293 289 292 288 289 296 289 289 288 288 291 286 284 289 285 282 283 287 289 290 290 290 292 292 291 290 290 292 292 293 293 293 293 293 291 291 291 291 292 292 292 292 292 291 290 291 291 291 291
301 302 302 301 300 301 305 303 301 302 300 301 301 305 301 303 304 307 309 310 303 294 289 288 289 287 287 285 285 289 298 294 296 296 294 292 294 296 294 290 286 289 294 290 287 291 287 292 288 283 287 284 283 285 287 289 289 290 291 291 291 291 291 291 291 292 292 293 292 293 293 292 291 291 291 292 292 292 292 291 291 291 290 290 291 291 291
302 302 301 299 302 302 299 298 301 303 302 302 303 303 302 303 304 305 306 304 306 304 294 289 289 289 291 287 289 290 295 287 292 291 292 290 287 290 290 288 286 288 288 287 288 286 289 294 287 283 283 283 285 289 291 291 291 290 290 291 292 292 292 292 292 292 292 292 292 292 292 291 291 291 291 291 291 292 291 290 290 290 290 289 290 290 291
302 300 301 301 301 294 292 295 302 305 303 302 304 303 302 300 295 295 295 293 298 297 294 294 289 292 294 292 286 293 293 289 294 288 289 291 288 288 290 288 287 287 282 285 287 293 290 287 285 284 284 289 290 291 291 292 292 293 292 292 292 293 293 293 292 291 290 289 289 290 290 290 290 291 290 290 291 291 290 292 292 292 292 291 291 291 291
302 301 301 302 299 294 295 300 306 300 306 303 303 297 291 293 292 288 288 290 290 289 293 292 289 293 292 290 291 297 293 288 288 290 286 291 287 284 288 283 287 287 283 284 286 293 284 285 285 285 283 286 287 289 291 292 292 292 293 293 294 293 293 293 293 292 291 289 290 291 291 289 289 289 291 291 291 292 292 292 292 292 292 291 291 290 291
302 299 296 296 295 297 302 304 303 302 302 296 297 293 287 291 288 284 291 287 288 290 292 287 293 293 293 290 289 289 297 292 286 286 286 289 294 285 287 287 288 285 280 281 284 291 284 280 284 283 283 285 287 291 292 292 291 293 293 293 293 294 294 293 294 295 293 293 293 293 293 293 293 292 291 291 291 291 291 292 292 292 292 291 291 291 290
301 301 298 294 299 302 301 302 304 302 296 291 289 289 288 285 289 290 288 286 286 287 293 292 293 292 293 294 293 288 295 298 296 295 290 286 292 291 286 283 289 283 281 281 286 287 285 283 283 282 282 286 288 290 292 292 292 292 293 294 294 293 293 293 293 294 293 293 293 293 293 293 293 293 293 292 292 292 291 291 291 292 292 291 290 291 292
298 296 299 302 303 303 302 300 298 292 290 291 286 283 286 286 289 288 289 284 285 288 290 292 288 289 290 291 291 293 293 297 293 290 288 285 288 286 284 286 287 281 278 285 288 286 284 280 280 281 285 289 291 291 292 291 292 292 292 293 294 294 293 293 293 294 294 293 293 293 293 293 293 293 293 292 292 292 292 292 291 292 292 292 292 292 292
301 302 302 302 298 295 296 290 291 290 283 283 282 281 285 283 284 284 285 289 291 291 290 297 294 295 296 298 294 296 292 297 291 290 287 285 290 288 285 284 282 278 283 288 286 283 280 279 280 283 287 289 291 291 292 292 292 291 292 294 294 294 294 293 293 293 294 293 293 293 293 293 292 293 293 293 293 293 292 292 291 291 291 292 292 292 291
303 303 299 295 292 291 292 281 290 287 284 285 282 277 282 282 284 286 285 286 288 289 293 291 291 291 287 293 290 289 291 294 293 290 288 290 286 284 283 280 281 287 290 284 283 280 281 283 284 285 288 290 291 291 291 291 291 291 292 293 293 294 294 294 293 293 293 293 293 293 294 293 293 293 293 294 293 292 292 291 291 292 292 292 291 291 292
295 292 292 289 286 288 287 278 289 285 279 282 285 284 284 282 285 286 286 289 293 289 292 292 292 291 288 293 294 291 290 287 292 286 284 286 284 285 282 281 286 286 282 279 281 282 282 281 286 287 289 289 290 290 291 291 292 291 291 292 293 293 293 293 293 293 292 293 293 293 293 293 293 293 292 293 293 293 292 292 292 292 292 291 291 291 292
290 289 287 282 277 284 285 282 283 281 286 287 286 289 288 288 289 289 293 295 292 292 290 292 292 292 289 292 287 287 290 289 287 286 288 287 282 280 286 289 287 281 280 280 278 278 280 283 285 287 288 289 290 290 291 292 292 293 292 291 291 292 293 293 293 293 293 293 293 293 292 293 293 293 292 293 293 293 293 293 293 293 293 292 292 292 292
292 292 290 288 283 285 288 283 283 287 289 290 292 292 291 291 293 293 294 294 293 294 293 294 292 293 289 289 289 289 289 289 285 288 288 283 282 285 288 283 278 280 277 276 277 279 282 284 286 287 288 290 291 291 291 292 292 292 292 293 293 292 293 293 293 292 293 293 293 293 293 293 293 293 293 293 293 294 293 294 294 294 293 292 292 293 293
287 291 290 282 280 285 283 286 291 293 293 293 293 294 294 294 292 291 294 295 295 295 294 293 289 291 289 293 291 287 288 288 285 285 287 285 286 283 281 280 279 281 281 279 279 283 284 286 287 288 290 292 291 291 291 291 292 293 293 293 294 293 293 293 292 293 293 293 292 293 293 293 293 293 293 293 293 293 294 294 294 294 294 293 293 293 292
292 289 286 285 287 287 287 291 291 289 291 293 293 293 292 291 291 292 294 296 294 294 294 292 290 289 285 289 287 286 284 287 282 283 286 284 279 277 277 275 277 276 282 284 284 285 286 288 289 289 291 291 292 292 292 292 292 292 292 292 292 292 294 293 293 294 293 293 294 293 293 293 293 293 293 293 293 293 294 294 294 294 294 294 293 293 292
289 288 290 288 287 289 292 292 290 288 290 291 291 290 292 291 291 292 295 294 295 294 294 292 292 287 287 287 284 285 284 287 285 285 283 280 281 282 280 276 279 279 281 285 286 287 289 289 291 290 291 291 292 292 292 293 292 293 293 293 293 293 293 294 293 293 294 293 293 293 293 293 293 292 292 293 293 294 294 294 295 294 294 294 294 293 292
292 290 290 293 288 288 289 286 286 286 287 288 288 290 291 290 291 292 297 295 295 291 289 286 288 286 285 284 283 279 282 287 284 282 282 281 284 282 279 278 281 284 286 288 289 289 290 291 290 290 290 291 293 294 294 294 293 293 293 293 293 294 294 293 293 293 294 294 294 291 292 292 293 293 294 294 294 293 293 293 293 294 294 294 294 294 293
289 286 286 290 293 292 292 291 290 290 290 291 291 292 292 291 293 294 297 295 292 288 286 289 287 285 283 281 283 285 287 285 282 283 281 284 286 282 282 283 285 286 287 288 289 290 290 290 290 289 291 291 291 292 293 294 294 294 294 294 294 294 293 293 293 293 293 293 293 293 293 294 295 294 295 294 293 292 291 291 294 294 294 295 295 295 295
Wind_Speed
22 24 25 25 25 27 26 26 25 23 24 12 9 9 6 4 2 4 7 6 6 6 7 8 7 9 10 13 16 16 13 11 12 14 9 9 7 10 10 14 13 11 9 8 9 10 7 10 7 4 3 10 4 4 9 10 12 9 5 9 2 4 2 3 6 5 9 12 10 14 15 14 10 11 10 6 8 10 9 6 6 5 2 3 4 2 3
21 24 24 25 25 26 26 25 24 21 18 10 10 8 7 8 3 3 4 6 3 6 6 5 5 7 8 10 13 14 15 12 13 13 7 5 7 9 10 13 14 11 7 8 10 6 3 4 7 3 7 4 4 2 3 5 9 4 2 5 4 1 3 7 1 1 4 7 7 10 11 10 8 8 7 11 10 8 3 7 5 3 5 6 3 1 2
22 23 25 26 26 26 26 24 23 21 17 12 6 6 7 8 5 1 5 2 4 6 3 6 7 8 10 11 10 11 11 9 11 7 9 8 11 9 9 13 11 10 8 12 13 11 9 4 1 7 5 4 8 10 4 1 4 13 4 9 5 2 3 2 4 6 5 3 7 1 3 7 8 13 16 13 13 11 5 1 4 4 4 10 1 2 4
22 23 26 26 27 26 26 25 24 22 18 14 6 6 7 5 4 4 4 4 5 3 3 3 4 10 10 4 7 11 11 8 9 12 8 7 9 10 9 11 13 13 12 15 14 10 10 11 3 8 3 2 4 7 7 9 7 7 6 3 4 2 3 3 4 1 1 3 3 2 4 7 8 19 17 16 16 11 4 8 2 3 5 4 4 10 5
21 22 25 25 26 26 26 26 26 24 22 12 5 6 5 6 2 5 4 2 3 7 5 8 7 3 11 3 4 8 9 7 7 1 7 4 7 7 7 7 5 7 9 7 9 10 11 9 11 5 7 3 4 9 10 10 8 11 6 5 5 4 2 5 4 8 7 2 2 3 2 8 11 16 16 18 18 12 9 4 4 5 6 5 4 10 11
22 22 24 25 25 26 27 26 27 26 26 19 4 6 5 3 6 4 3 4 6 7 5 10 10 9 4 4 3 5 13 7 3 1 6 5 4 5 5 9 8 8 7 8 6 7 10 12 6 4 10 8 5 4 10 8 5 5 6 6 5 5 4 5 5 6 8 7 6 2 4 6 6 14 11 13 16 17 18 11 6 7 1 3 8 9 13
22 22 22 24 25 25 26 26 28 28 29 20 5 6 5 6 3 4 8 3 6 7 9 11 9 7 11 5 6 5 12 13 6 4 2 4 1 6 4 8 11 10 9 9 7 3 5 3 6 5 4 3 2 2 3 7 8 7 5 5 4 1 3 3 6 5 3 2 1 4 1 4 5 5 13 12 14 14 14 15 18 4 4 14 13 13 11
22 22 23 23 25 25 25 27 27 28 31 19 2 7 6 7 5 3 3 3 7 8 8 7 8 7 13 4 12 6 7 3 4 7 4 2 6 5 5 6 8 7 10 11 6 5 3 3 4 8 8 1 2 8 9 3 7 6 6 3 2 4 1 5 3 5 6 6 3 1 3 4 3 4 6 10 12 13 13 11 11 10 15 14 15 15 12
22 21 22 23 23 24 25 26 25 28 26 8 8 6 7 4 4 4 6 4 5 7 8 7 6 6 8 8 12 12 12 9 9 10 10 7 5 7 9 8 8 7 8 10 9 9 9 7 4 7 4 2 3 3 2 4 4 4 6 5 4 3 2 3 3 3 4 6 6 5 1 0 2 3 4 3 7 7 9 8 10 5 4 13 13 11 7
22 21 22 23 23 24 24 24 25 25 24 7 8 7 7 7 6 6 6 4 4 6 7 8 6 5 6 8 10 8 9 10 8 2 8 11 11 12 10 8 2 6 10 10 12 11 9 7 8 7 6 6 5 5 5 9 8 1 5 3 3 2 2 2 4 5 4 4 7 4 3 2 5 7 8 4 3 5 8 11 12 9 2 3 3 8 10
21 21 22 22 23 24 24 23 23 23 15 9 8 8 7 7 8 9 6 3 5 6 6 8 6 1 5 8 9 9 9 9 10 7 3 9 10 12 11 12 8 6 9 10 10 10 8 7 7 7 7 7 5 3 3 6 3 10 6 3 2 5 5 3 3 3 2 4 6 4 3 3 0 4 5 6 7 5 8 7 9 10 8 2 8 12 12
21 21 21 22 23 23 24 23 23 20 16 9 7 7 7 7 8 8 3 3 4 5 7 6 6 7 8 10 8 7 9 10 9 8 6 7 9 9 11 10 9 4 9 11 8 7 8 8 8 7 7 8 7 3 3 3 3 7 12 6 4 5 6 3 3 1 2 5 5 2 3 2 4 1 5 4 6 11 11 9 6 5 8 12 11 10 13
20 20 20 21 22 23 23 23 23 20 19 12 8 7 7 8 7 9 6 4 5 8 5 7 5 5 6 9 7 9 7 6 7 7 6 8 8 8 8 9 9 9 11 12 11 10 7 6 5 5 7 5 6 6 6 3 4 3 3 11 12 7 4 0 1 1 1 3 1 2 2 3 2 4 3 6 8 9 12 8 7 6 9 11 14 14 15
20 19 20 20 21 22 22 23 23 23 21 15 8 8 7 8 8 8 7 4 5 7 10 6 8 6 5 7 5 8 7 7 5 5 8 6 9 9 8 8 10 10 9 10 11 7 6 3 1 2 3 3 2 4 4 1 1 4 1 2 4 2 2 0 1 2 2 1 2 0 3 2 4 3 8 6 4 5 4 4 3 6 7 10 11 12 14
19 19 19 20 21 21 22 22 22 23 22 22 8 4 7 8 8 7 8 7 3 6 8 6 6 11 8 8 7 2 5 5 7 6 8 5 8 7 8 9 9 10 10 10 7 3 2 3 3 1 2 2 3 1 5 4 8 5 4 3 4 8 4 1 1 1 1 1 3 2 1 3 2 7 7 6 7 8 7 11 6 10 10 10 11 11 12
18 19 19 20 21 21 22 22 22 22 21 24 11 8 6 9 9 7 8 7 5 5 8 8 6 9 6 8 9 8 5 2 4 2 5 3 4 7 8 7 6 8 8 8 7 4 2 3 2 2 0 3 5 3 3 3 5 4 1 7 7 5 9 3 3 3 6 4 3 1 2 3 4 7 9 7 8 8 7 2 8 9 11 11 12 12 12
18 18 19 20 20 21 22 22 22 21 20 19 10 10 6 10 9 9 9 4 6 6 8 11 8 6 7 7 7 7 7 5 7 2 1 2 5 6 6 7 3 4 7 6 7 4 2 3 4 5 3 4 1 1 5 4 4 5 5 2 4 3 0 1 2 4 4 4 3 1 3 3 4 3 4 6 6 7 3 4 6 9 12 12 12 12 11
17 17 19 19 20 21 21 21 22 21 21 22 11 8 5 8 8 11 6 4 3 6 8 11 10 8 8 7 7 8 7 7 10 3 4 7 9 8 8 6 9 3 2 4 4 3 3 2 2 2 1 3 5 4 3 5 3 2 4 6 4 3 2 1 2 3 2 3 1 3 4 3 8 9 9 6 8 4 2 3 5 4 10 10 9 11 9
17 17 18 19 20 21 21 21 22 22 21 21 15 8 6 8 10 10 8 6 5 5 8 10 9 10 10 8 8 9 8 9 10 6 6 5 7 10 10 4 6 5 6 5 4 3 2 2 2 3 2 4 4 0 3 2 1 2 4 4 5 3 3 3 3 2 5 1 3 4 5 2 6 9 6 6 5 0 4 4 3 7 6 9 10 12 13
18 17 18 18 19 20 21 21 22 21 21 19 12 7 5 8 8 9 9 5 5 7 7 9 10 12 9 11 10 10 9 8 10 8 8 7 10 14 4 3 8 7 6 9 2 3 3 4 3 3 2 4 3 5 2 2 1 4 4 7 2 4 3 4 4 4 2 1 2 3 3 3 4 10 5 7 2 3 5 7 12 11 9 11 13 11 11
18 17 17 18 18 20 20 21 21 21 22 22 16 6 4 7 7 8 8 9 4 3 5 7 9 10 10 10 10 11 11 10 9 9 8 8 9 7 6 4 7 5 5 5 6 4 1 3 7 4 4 3 4 3 1 3 3 12 7 6 7 8 2 1 3 4 3 4 4 4 3 4 7 8 6 7 9 4 5 5 10 9 9 9 9 10 9
16 16 17 17 17 19 19 20 21 20 21 21 21 8 3 5 4 6 9 6 5 3 3 3 3 8 8 8 8 8 9 10 10 9 8 7 6 7 6 8 8 6 5 6 6 5 5 6 4 3 3 4 6 6 7 1 2 5 7 4 0 9 6 4 5 8 4 5 6 6 5 6 7 8 12 13 14 13 11 9 8 9 9 10 9 9 8
16 16 16 16 17 18 18 19 20 20 20 21 16 7 7 6 6 8 10 3 3 2 5 4 4 6 6 8 8 7 7 8 8 8 9 9 3 7 8 7 7 7 5 6 6 6 7 6 5 6 4 5 5 7 2 2 2 4 2 6 5 5 7 5 7 10 12 11 9 8 8 8 9 9 9 11 11 12 12 13 11 9 11 9 7 7 9
15 15 15 15 16 18 18 18 19 20 20 19 13 7 7 6 6 8 8 2 3 1 4 6 2 4 6 9 9 7 6 7 8 7 7 9 6 3 5 6 6 5 6 7 5 7 5 3 5 4 3 6 7 3 5 2 8 5 4 4 3 5 2 3 5 5 1 5 6 8 8 7 8 8 8 9 9 10 11 12 11 11 11 11 10 9 7
15 15 15 15 16 17 17 17 17 18 20 19 17 10 8 3 6 7 8 3 1 4 1 3 4 4 4 5 5 6 7 6 5 8 6 8 8 7 6 4 4 5 7 7 6 6 2 3 4 3 2 5 7 3 4 2 5 6 3 8 4 5 7 1 6 2 1 8 8 9 8 8 8 7 8 8 9 10 11 10 10 10 10 9 8 7 7
14 15 15 15 15 15 16 16 17 17 17 20 15 8 7 5 6 6 6 5 6 4 2 4 5 1 3 6 5 5 6 7 8 8 9 7 7 5 6 4 3 4 5 4 5 3 4 3 3 2 6 3 7 3 3 2 2 4 5 5 4 4 7 3 7 7 8 10 9 9 9 9 9 9 8 8 8 9 9 9 10 9 9 8 8 6 6
14 14 14 15 15 15 15 16 16 16 17 17 10 8 7 4 4 6 6 6 7 3 1 4 3 4 3 6 3 4 8 7 6 6 7 8 9 7 6 6 6 4 5 3 0 2 3 0 4 6 6 5 6 3 6 2 6 3 4 8 6 2 7 4 4 6 3 4 7 8 4 5 7 8 8 9 9 9 8 8 9 8 7 7 9 9 10
14 14 14 14 15 15 15 16 15 16 15 15 10 7 6 3 3 4 5 6 5 3 5 1 5 5 3 6 5 5 7 7 7 6 5 7 7 5 6 8 6 6 5 5 3 3 6 6 6 4 2 4 5 1 4 3 3 3 9 7 6 6 7 7 6 3 6 9 7 4 5 10 7 7 7 7 5 4 5 6 6 5 5 5 3 2 3
13 13 13 13 14 15 15 15 15 14 15 13 8 7 4 1 4 6 6 5 4 6 6 1 3 6 1 6 6 6 6 6 6 6 5 5 6 5 6 5 6 6 4 3 2 2 4 4 3 4 4 5 5 4 3 2 3 6 5 10 9 5 5 8 7 9 9 8 4 4 6 7 7 7 5 5 4 4 4 5 6 8 2 6 6 6 5
14 14 14 14 14 15 15 14 15 14 13 8 7 7 5 6 5 6 7 5 5 4 4 3 1 3 2 4 4 4 4 3 1 3 5 4 4 5 6 6 5 6 4 1 4 3 2 2 1 3 3 3 4 4 2 2 3 6 6 8 4 4 5 1 4 6 7 5 7 9 9 8 6 5 5 5 6 9 9 10 9 8 8 6 5 4 4
15 15 15 14 15 15 15 15 14 14 11 5 6 4 3 1 4 7 10 7 6 5 3 4 1 2 2 2 1 6 5 2 2 3 4 5 1 4 5 6 6 6 5 3 2 3 3 3 4 4 3 6 3 3 4 4 2 7 8 7 6 8 8 5 8 10 6 5 4 6 6 5 4 5 7 5 3 3 6 10 7 7 3 3 4 5 6
15 16 15 15 14 14 14 13 13 12 7 6 5 4 3 3 5 7 9 8 6 5 3 3 1 1 2 2 1 1 4 5 4 5 1 6 4 3 2 4 3 5 4 3 2 0 3 1 1 5 6 2 2 4 5 5 5 7 5 3 5 5 4 3 4 6 6 4 2 4 5 4 5 7 5 2 4 3 3 2 7 7 3 3 4 6 3
16 15 16 15 14 13 13 12 11 7 4 6 4 4 5 2 6 7 6 7 4 5 3 3 2 1 0 3 2 2 5 6 4 4 4 5 4 4 2 3 4 3 4 3 1 2 1 1 1 2 3 1 1 3 3 2 7 7 6 5 5 4 4 3 3 4 4 3 3 2 3 4 3 4 5 5 3 3 2 1 2 2 2 5 1 3 4
16 16 15 14 12 11 11 11 9 8 8 4 3 3 2 5 3 5 6 4 3 4 2 2 1 2 3 3 3 4 4 5 3 3 2 4 4 5 4 3 3 2 4 4 2 3 2 3 3 2 2 2 2 2 2 4 3 3 3 7 5 4 4 2 1 3 3 4 2 3 5 5 3 2 1 3 3 3 2 2 2 2 1 3 2 2 4
16 16 14 12 10 9 10 8 5 5 5 7 3 4 3 5 4 5 5 4 2 2 1 2 2 2 1 2 0 4 4 6 2 4 4 4 1 6 4 3 0 1 3 2 2 2 2 5 4 3 2 1 1 2 2 1 5 1 1 1 6 5 3 3 3 2 2 2 1 3 3 2 1 2 1 1 2 2 2 1 3 3 3 3 0 2 2
16 15 12 8 8 8 5 4 4 6 4 3 3 3 4 7 5 5 5 5 3 4 2 2 2 3 2 2 3 2 4 3 3 2 2 1 1 2 4 3 2 4 4 3 3 1 3 5 3 2 3 3 1 1 4 6 5 2 2 1 1 3 4 4 3 4 3 3 1 4 3 2 3 2 3 2 3 2 1 1 3 3 5 5 1 2 1
16 13 7 5 5 4 5 3 4 3 3 3 5 9 10 6 5 4 5 5 5 4 4 3 4 3 4 2 2 3 4 2 2 2 2 4 4 0 2 3 2 2 2 2 3 1 5 2 2 2 2 2 2 3 4 4 4 4 2 2 0 1 1 3 3 4 4 4 1 3 3 4 2 2 3 2 1 0 2 3 2 4 4 4 2 1 2
12 8 4 4 3 3 2 2 3 2 4 5 6 4 3 3 2 3 2 2 3 2 2 4 2 2 3 2 3 3 5 2 3 3 2 3 3 1 2 2 3 2 4 3 5 5 2 0 2 2 2 2 2 3 3 4 4 2 2 2 2 1 2 2 7 5 6 5 6 4 3 4 4 4 4 3 1 1 2 2 3 4 5 4 4 3 2
6 3 5 5 3 2 2 4 2 1 4 1 2 2 1 1 2 1 0 2 1 2 0 4 1 3 2 0 5 4 5 3 3 2 1 3 2 2 2 4 2 2 3 2 2 3 3 2 2 2 2 6 3 6 4 1 3 2 3 5 4 3 2 3 5 6 5 5 3 2 3 5 7 7 7 5 0 1 1 2 4 6 6 3 2 0 2
4 4 3 4 2 5 4 3 4 2 2 2 2 2 0 1 1 2 0 2 2 1 1 0 5 4 4 6 2 3 4 4 3 4 4 2 3 3 3 3 2 2 3 4 2 2 3 3 1 3 1 2 1 3 2 4 6 5 4 2 4 5 4 4 2 2 3 4 4 1 3 3 5 4 6 5 1 3 3 3 5 7 4 1 6 2 1
3 5 1 3 4 2 5 4 3 4 3 1 0 0 1 1 1 1 1 2 1 2 1 2 2 3 3 2 2 2 3 3 3 4 2 0 2 3 3 3 2 3 2 2 2 2 3 3 2 2 5 2 3 3 4 4 4 5 4 4 5 5 5 5 4 3 4 5 4 2 2 2 3 5 4 2 1 2 3 3 6 5 3 2 2 3 4
4 4 3 6 4 2 3 3 3 1 1 1 0 1 1 0 0 2 2 2 2 1 4 2 1 1 4 3 5 4 4 3 2 2 2 1 2 2 2 2 1 2 2 2 2 3 1 3 2 1 5 1 1 3 4 5 4 5 6 5 4 5 5 4 3 3 4 4 3 2 2 1 2 4 3 2 2 3 4 5 6 5 6 4 2 3 3
14 9 5 3 3 2 3 1 1 1 1 0 0 0 1 1 2 3 2 1 0 1 4 2 3 2 3 4 1 1 3 4 3 0 1 1 1 1 2 2 1 3 2 3 3 2 3 2 3 2 4 2 2 3 3 4 5 5 5 2 3 4 5 4 4 4 3 2 3 2 3 2 3 6 1 3 2 5 6 6 3 2 3 4 6 5 3
5 4 3 1 1 0 1 1 1 0 1 1 2 3 2 3 3 2 2 3 2 1 3 1 2 3 1 2 3 0 2 3 0 1 1 1 1 1 1 2 2 2 2 4 2 4 3 2 2 2 2 3 2 4 4 4 4 5 5 2 1 3 4 5 4 5 3 1 2 2 2 4 3 4 3 5 4 6 6 6 9 8 3 4 6 3 4
3 1 1 0 0 1 1 1 1 1 2 3 3 2 2 3 2 2 2 3 2 5 1 2 2 2 2 4 2 2 2 1 3 1 1 1 3 2 2 3 2 2 3 4 3 3 2 3 3 2 3 1 2 2 3 4 6 5 5 7 5 3 4 7 6 4 3 4 3 3 3 3 3 3 4 4 7 8 6 6 5 5 5 4 5 6 6
3 3 3 2 1 3 2 1 2 2 3 2 3 4 3 3 3 4 3 2 0 4 0 3 3 1 3 1 2 0 2 1 3 1 1 1 2 3 2 3 2 4 3 3 4 4 3 2 3 1 4 3 4 5 4 5 5 5 6 6 6 6 5 6 6 6 5 4 3 3 2 3 4 3 3 4 4 3 4 5 3 3 4 6 5 3 3
2 1 1 2 2 2 2 3 4 2 2 4 1 3 3 5 5 7 5 2 1 3 1 2 2 3 3 1 2 1 1 0 2 1 1 3 2 2 0 2 3 2 3 4 4 3 3 2 4 3 0 2 5 5 4 4 5 5 5 5 5 6 6 5 5 6 5 4 4 3 2 2 4 4 4 5 5 5 5 4 5 2 2 2 3 5 2
2 2 2 1 3 2 5 4 6 2 2 1 3 3 4 3 2 3 1 1 3 2 2 2 2 0 2 2 1 3 2 1 2 2 1 2 0 2 2 2 3 2 2 4 4 2 1 3 3 3 5 4 3 5 4 3 4 5 7 8 9 8 4 4 6 7 5 5 6 5 3 2 3 4 5 5 6 5 5 5 5 5 5 6 6 4 4
2 2 1 2 2 2 4 3 3 3 2 3 2 2 2 2 1 3 2 2 1 1 3 3 2 2 2 1 2 1 3 1 1 1 1 1 1 2 1 3 3 4 2 2 5 3 3 3 3 3 5 5 4 4 4 4 4 2 4 5 4 7 11 6 5 6 4 4 5 5 5 6 4 3 4 5 6 5 6 6 6 6 6 7 6 5 4
2 3 2 3 3 3 4 0 3 2 3 3 2 3 2 1 4 6 2 1 2 2 1 2 1 2 1 2 2 1 2 2 2 1 2 3 4 3 3 6 4 4 3 2 3 3 3 3 3 4 5 4 4 5 5 5 4 4 5 4 5 2 3 9 5 4 5 7 7 5 7 5 5 4 5 6 6 5 6 7 6 6 6 6 6 8 7
1 2 3 4 5 2 1 3 3 3 3 4 3 1 2 1 1 4 3 3 1 1 2 2 0 2 2 2 1 2 0 2 2 4 3 4 2 4 4 5 4 3 4 3 3 2 4 3 2 3 4 5 5 5 6 6 5 6 6 6 6 6 5 3 6 5 7 10 10 7 6 7 8 7 6 5 5 4 6 6 7 7 7 7 8 7 7
2 3 3 4 5 3 5 1 5 3 3 2 1 3 2 1 3 5 1 4 3 3 3 0 2 2 2 4 2 1 2 2 3 3 4 3 2 4 4 4 5 4 4 5 5 4 4 3 3 2 5 6 6 6 7 7 7 5 6 5 4 6 7 6 3 5 7 8 7 8 8 7 5 8 9 8 7 6 5 5 6 8 7 6 7 7 7
Wind_Direction
343 344 343 341 339 339 339 339 339 340 343 347 348 318 287 266 246 116 180 160 225 240 270 269 255 248 261 277 274 272 252 260 267 272 281 292 285 271 258 258 249 243 286 311 287 291 279 166 191 184 63 204 207 7 304 323 309 155 207 283 7 31 229 221 229 342 303 263 304 332 302 290 264 237 271 268 225 233 242 208 197 222 153 208 226 157 108
346 345 344 342 341 339 339 339 339 339 351 340 313 301 296 321 348 175 127 214 230 267 273 294 280 285 276 279 282 277 282 284 252 242 247 258 263 255 262 261 253 261 234 252 270 280 307 292 129 195 174 217 194 232 212 331 319 287 194 251 56 266 235 261 209 104 259 283 303 286 318 330 319 299 247 245 266 248 249 308 59 289 235 256 241 163 197
346 345 344 343 341 340 339 338 337 337 341 338 314 301 319 299 278 267 164 202 260 306 58 309 310 297 288 283 284 289 271 265 300 305 274 260 260 261 251 269 264 244 252 265 262 240 254 265 245 129 242 127 179 184 178 313 306 299 85 95 129 124 285 195 243 246 235 243 230 241 305 326 325 327 307 263 254 244 91 347 16 265 274 270 20 89 93
346 345 345 344 342 341 339 338 336 334 338 336 309 284 292 319 333 8 337 17 5 342 65 47 305 306 274 266 249 252 261 264 276 291 280 271 273 279 288 295 292 258 243 233 229 251 249 260 251 117 220 152 189 188 192 163 214 51 15 197 164 209 105 181 244 296 240 290 10 65 1 334 341 333 337 321 278 274 303 122 165 229 4 329 47 148 143
347 345 346 345 344 342 341 338 336 334 332 342 297 280 241 280 356 358 338 321 97 346 10 331 327 324 290 268 6 312 290 263 242 258 283 264 266 268 261 268 274 294 280 296 293 262 264 233 244 152 140 94 274 236 197 198 143 140 184 253 248 216 194 195 210 223 242 165 225 117 310 297 325 338 339 353 348 315 255 239 287 119 149 164 250 157 134
349 347 346 347 346 345 342 339 337 336 329 336 295 286 299 325 55 15 23 320 3 340 355 346 314 296 320 309 270 225 261 246 193 337 265 258 289 285 293 268 259 268 261 256 258 277 263 263 259 243 152 158 163 275 225 154 135 165 222 200 226 203 228 177 200 235 241 248 266 147 204 247 304 335 332 357 345 29 18 345 297 268 254 178 119 119 106
350 347 347 348 347 346 343 339 340 338 332 327 239 311 29 24 34 51 359 0 8 1 335 334 330 10 354 346 268 302 51 359 316 128 256 300 10 295 305 295 283 277 256 240 240 275 297 321 339 54 41 356 131 294 351 146 157 223 210 156 19 351 289 167 213 224 166 156 206 54 83 187 220 12 350 7 12 33 38 8 354 352 158 115 117 107 97
350 349 348 348 347 347 344 345 344 342 337 323 8 41 349 38 350 36 294 38 28 12 353 5 357 25 23 334 357 25 113 155 298 50 28 34 339 323 289 277 293 299 349 10 47 29 39 3 30 327 8 292 172 149 210 272 282 202 217 140 28 272 190 302 187 234 209 171 158 102 71 67 108 71 15 20 20 28 54 45 346 342 110 105 105 99 92
351 350 349 348 346 346 346 348 348 346 343 345 9 54 11 347 43 327 316 24 24 30 17 18 12 15 19 5 9 345 16 24 30 38 44 52 34 353 342 354 337 34 35 29 26 9 5 355 19 328 338 345 275 296 328 9 316 292 42 8 18 307 144 177 258 239 227 207 201 210 118 36 253 213 192 28 24 38 40 34 28 344 109 115 116 112 109
351 350 349 348 347 346 346 348 349 352 338 359 355 27 5 347 1 323 299 333 64 39 46 41 12 28 2 355 0 9 5 8 345 68 12 27 20 6 13 12 75 355 24 8 359 344 331 327 332 320 314 310 280 246 204 193 185 167 77 343 273 309 158 207 211 226 234 217 191 186 163 223 250 237 219 203 150 89 51 39 17 14 350 128 146 111 119
351 351 349 348 348 347 347 348 351 357 357 10 344 352 5 359 332 318 293 287 80 65 47 48 36 348 319 8 357 8 14 14 23 12 29 5 11 5 16 24 26 34 25 349 321 311 305 301 290 275 268 277 286 288 279 278 261 132 135 152 301 306 323 251 239 257 230 202 121 146 159 231 38 13 330 211 164 103 81 47 41 29 32 299 91 118 117
351 351 349 348 348 347 347 348 350 354 359 335 313 306 9 339 316 298 305 18 68 93 86 65 31 19 5 1 1 17 5 17 20 9 19 356 5 6 9 22 17 25 356 325 325 313 290 262 244 249 263 251 255 274 258 296 340 137 153 119 30 3 260 246 53 229 355 16 113 138 224 224 45 17 52 88 89 94 91 97 53 73 78 77 95 112 108
351 351 349 349 348 347 347 347 347 349 354 345 327 331 13 348 327 328 344 17 31 355 17 88 115 69 7 347 357 353 2 356 16 359 22 354 2 8 12 1 4 355 334 336 328 306 300 276 246 247 226 213 226 238 256 222 231 257 255 148 162 189 218 244 196 154 165 184 189 244 53 3 85 64 110 98 111 104 87 60 79 69 56 71 80 92 96
352 352 350 349 348 347 348 347 346 347 348 351 326 316 10 5 359 344 354 339 57 17 352 50 13 26 77 26 3 341 343 1 348 6 8 356 356 2 353 353 349 333 333 330 313 324 321 249 284 274 227 239 221 253 289 269 15 343 110 211 145 126 47 347 198 352 246 253 210 88 80 167 69 129 46 20 76 152 165 148 138 111 84 87 101 99 101
352 352 351 350 349 349 349 349 348 348 347 347 315 312 30 9 359 338 314 311 83 62 26 26 358 323 347 34 9 350 356 1 357 6 354 327 3 0 345 344 336 336 326 320 323 337 323 329 323 308 275 262 235 299 343 334 321 234 314 318 265 148 180 178 249 178 268 213 208 183 173 232 66 8 24 20 13 358 87 111 118 112 112 106 101 105 110
353 353 352 352 351 350 350 350 349 348 353 350 339 344 46 10 346 340 324 6 6 56 26 7 352 304 5 31 6 13 341 25 327 265 286 37 28 6 357 346 339 324 327 325 317 310 354 339 301 306 290 269 12 21 323 4 339 324 34 306 302 260 83 110 269 214 189 204 188 232 262 78 331 9 352 6 352 1 340 131 105 125 128 123 118 118 122
352 353 352 352 351 351 350 349 349 350 350 360 339 327 28 6 355 344 320 51 63 59 19 10 358 357 16 22 7 20 356 355 328 18 306 60 44 21 12 340 282 271 342 330 331 320 230 207 269 268 24 352 9 262 267 202 167 290 314 266 283 294 284 164 211 275 272 247 237 148 79 96 357 17 353 0 5 337 320 158 115 127 133 134 134 131 138
353 353 352 352 352 351 351 349 349 349 352 351 346 307 17 5 357 336 312 56 57 57 38 19 26 20 26 9 6 5 360 355 340 335 336 20 40 12 345 2 348 118 246 262 273 301 299 275 275 304 345 92 300 295 333 33 9 296 312 358 341 340 312 285 292 266 57 333 92 124 129 62 347 346 339 6 347 328 209 170 118 118 119 121 126 140 124
354 354 354 353 352 352 351 350 349 349 351 354 345 322 42 0 356 349 348 66 45 65 30 36 39 44 19 25 25 9 25 3 352 350 8 353 15 340 313 20 348 354 357 345 325 301 296 304 262 279 277 170 216 29 202 231 331 8 328 320 318 314 333 285 270 299 281 165 44 46 67 356 301 310 332 337 308 161 116 107 120 61 83 96 75 77 84
352 353 353 354 352 353 351 350 349 346 348 351 353 320 356 19 359 358 357 11 72 59 44 41 31 47 41 34 22 26 13 28 6 5 8 355 351 325 287 165 31 347 16 345 12 50 328 346 7 17 325 329 57 341 0 209 307 25 4 351 313 19 353 16 23 344 318 264 128 105 75 37 309 290 339 353 52 95 142 137 89 89 90 87 71 76 89
351 350 352 353 353 353 351 349 348 346 346 346 349 321 355 28 350 355 352 348 38 70 62 40 53 46 39 42 36 26 29 27 14 2 354 349 343 337 44 21 9 5 16 355 340 5 352 350 3 352 25 314 76 263 285 39 53 72 3 6 46 8 299 26 56 2 324 35 57 64 66 59 36 45 80 74 53 51 61 89 91 91 97 88 93 83 80
351 349 351 352 352 352 351 349 347 346 346 347 342 315 35 31 354 350 337 329 55 77 59 62 62 69 51 46 48 47 33 20 28 8 353 343 351 25 31 25 32 7 27 334 7 337 33 9 311 297 355 10 22 332 351 306 236 90 70 345 120 20 61 22 56 36 32 68 102 113 96 72 74 74 67 55 48 41 39 60 82 103 85 72 69 62 68
350 349 350 350 351 351 350 348 346 344 346 348 352 341 354 355 2 334 321 295 141 161 218 149 91 55 70 64 49 27 53 39 25 23 11 343 354 58 29 14 19 347 32 17 3 348 3 359 360 345 320 24 5 324 324 226 312 62 63 61 75 78 71 96 94 83 80 80 92 99 92 82 65 59 73 73 63 59 65 68 67 76 93 88 85 82 64
349 348 348 349 349 349 349 347 346 343 342 343 344 322 331 337 351 342 319 334 351 106 84 34 4 54 18 30 41 30 16 55 33 37 30 4 8 50 60 36 349 344 27 8 354 336 346 317 343 327 346 46 324 327 349 27 55 4 314 117 64 51 346 82 83 140 193 96 125 106 100 99 87 76 66 76 81 80 74 73 75 75 79 80 77 76 68
348 347 345 348 347 346 346 345 344 341 338 341 339 313 284 327 11 340 335 345 333 299 54 82 62 354 330 56 27 38 24 14 38 38 33 50 31 22 25 6 348 355 352 349 330 314 287 319 333 313 86 33 335 3 36 317 67 359 337 54 16 77 327 69 120 115 104 122 123 119 114 115 111 102 95 82 74 74 75 77 75 81 83 85 89 91 90
344 344 344 343 343 342 342 341 340 338 337 336 333 319 335 11 353 340 328 326 305 294 286 76 78 89 2 30 34 36 11 26 15 40 25 42 63 27 10 338 191 234 275 292 337 326 348 5 339 8 21 46 330 317 51 34 253 97 26 58 25 330 289 45 68 96 98 109 119 125 131 123 112 108 104 102 97 90 93 97 100 95 100 97 88 95 98
339 339 339 338 338 338 339 338 337 335 334 334 329 313 321 8 17 8 2 349 327 231 171 108 88 123 100 64 360 40 25 30 15 16 42 35 31 26 19 9 7 23 2 335 161 303 288 163 41 18 8 23 326 357 340 340 356 34 74 51 346 39 28 13 143 115 148 135 138 144 148 130 116 111 110 112 116 117 118 126 119 110 104 119 135 127 122
339 336 334 335 333 334 334 334 333 332 330 325 308 295 293 346 50 23 19 357 350 347 324 333 110 53 286 63 354 52 28 42 12 16 9 33 24 18 28 17 9 18 14 352 34 28 25 34 30 359 11 24 344 167 93 343 258 243 69 56 50 41 36 29 23 22 95 112 117 44 62 117 106 109 110 109 114 111 104 94 102 115 116 92 98 88 74
334 333 331 329 329 329 329 327 327 326 327 319 297 293 260 287 41 51 26 348 324 316 307 31 183 178 112 46 350 38 65 41 47 15 14 27 24 10 36 17 25 354 2 351 345 50 42 48 15 13 2 11 312 326 308 215 109 67 63 64 53 54 26 49 65 84 81 95 88 79 102 111 114 112 118 109 97 100 133 94 56 21 40 107 56 41 55
332 330 327 326 324 324 323 322 322 319 326 312 292 276 230 126 21 36 11 349 336 327 311 311 298 69 125 52 14 336 16 54 52 47 30 13 19 20 24 339 36 352 314 56 350 28 8 78 88 64 23 49 326 321 300 297 94 88 59 68 99 110 72 133 43 70 98 75 85 104 117 129 145 131 106 96 60 56 75 70 62 53 56 83 101 92 211
329 326 323 321 320 318 316 317 317 316 314 289 278 280 287 162 63 9 357 338 332 315 319 285 87 160 95 137 147 332 326 20 25 356 353 324 273 44 32 1 52 352 10 18 41 53 345 30 348 116 103 42 345 321 333 301 112 108 81 59 21 38 47 34 107 125 128 121 103 99 127 109 126 157 134 102 133 206 135 103 93 88 70 356 52 79 26
326 321 319 318 316 313 310 313 312 316 293 299 336 356 20 359 333 327 319 315 317 283 280 286 102 194 134 130 112 249 309 6 298 205 190 354 24 2 232 63 80 45 12 352 340 86 39 316 9 346 54 15 289 324 326 326 73 86 101 103 95 74 64 60 42 67 92 106 126 127 116 114 68 41 68 60 47 70 321 43 108 111 173 180 136 82 69
324 318 316 316 315 310 306 303 304 314 318 336 336 66 58 2 280 274 328 328 284 259 273 283 20 346 46 79 179 100 326 278 280 353 59 2 23 324 43 6 21 79 145 223 358 50 70 294 211 228 83 63 319 324 319 347 86 112 96 91 107 89 80 76 99 86 81 67 26 52 75 96 87 144 168 181 187 292 53 335 43 68 12 358 351 164 144
324 319 315 312 309 308 298 296 295 294 262 250 224 178 97 3 331 16 336 289 286 292 276 294 222 212 117 178 220 86 314 339 73 298 108 78 1 303 20 297 150 240 69 346 28 263 228 277 22 49 205 108 337 310 306 69 25 26 97 122 112 120 120 111 80 129 87 79 74 59 48 40 34 55 26 332 288 124 71 350 334 307 207 194 259 9 61
316 315 313 308 305 302 297 292 271 227 251 242 105 65 358 349 333 302 305 314 282 201 218 258 287 291 141 160 131 93 298 277 1 30 353 46 344 355 329 306 294 317 99 261 269 303 70 50 358 291 91 121 248 48 280 305 117 111 118 125 137 137 151 179 185 120 96 76 71 123 142 174 198 226 298 305 272 130 120 291 300 278 276 274 274 96 87
313 310 317 316 297 274 256 213 244 250 235 36 44 38 7 299 282 263 252 257 275 323 280 162 210 260 348 2 76 85 312 286 44 352 89 284 159 64 340 336 311 78 325 326 308 75 52 29 318 301 135 236 92 315 62 17 46 67 48 318 147 188 174 202 203 142 147 146 102 34 4 329 278 321 291 229 189 154 142 275 255 252 274 295 261 81 87
308 314 296 275 248 205 224 215 136 24 24 340 310 307 290 289 246 243 234 230 206 201 291 336 305 35 23 73 127 71 310 41 13 300 25 23 358 326 337 308 21 24 298 229 253 34 66 5 310 292 274 306 39 50 6 26 353 347 18 324 40 204 208 203 165 148 182 163 156 233 234 249 266 270 257 275 333 22 178 198 252 288 276 268 298 214 195
309 298 259 216 221 225 150 81 41 16 328 291 275 280 186 214 216 177 194 225 141 213 241 268 288 99 221 335 64 35 297 6 34 340 28 36 308 343 9 322 55 332 321 2 48 4 338 266 272 309 301 246 88 82 37 21 353 351 266 251 283 256 220 197 122 160 208 210 204 217 283 267 265 265 291 292 258 223 193 214 255 266 256 249 237 201 208
294 254 234 240 242 357 41 77 116 250 276 252 260 277 169 244 192 96 199 115 178 212 118 289 59 359 11 42 100 46 23 337 308 293 11 98 314 36 57 320 73 317 324 293 92 342 289 277 242 254 336 66 44 59 55 250 270 287 335 331 322 305 299 245 161 198 220 244 303 23 358 349 347 342 337 322 25 115 135 206 233 237 242 231 252 235 240
213 220 242 237 77 77 98 114 198 221 233 240 205 268 189 263 268 158 245 231 196 135 287 38 38 22 29 347 3 101 5 320 340 18 357 4 71 338 17 310 25 330 327 312 62 320 299 311 335 290 58 48 30 109 320 24 333 345 352 343 309 285 262 257 210 127 243 251 254 1 33 340 330 331 315 309 267 178 182 228 237 241 232 107 68 360 353
231 276 267 37 67 127 110 154 157 252 230 229 112 282 286 233 297 68 200 225 188 107 334 351 172 162 147 187 279 28 93 310 9 2 287 358 64 281 299 310 15 302 309 297 62 310 315 306 310 333 60 127 80 35 329 320 12 360 346 330 306 282 268 257 241 195 211 245 243 230 245 282 322 306 279 325 19 173 181 213 225 223 235 199 180 226 251
358 305 331 292 317 56 141 183 226 198 346 320 218 233 194 199 212 205 265 274 140 139 154 228 193 2 85 349 6 346 91 21 336 292 323 337 82 314 329 311 343 328 307 10 349 282 297 288 291 327 87 19 70 313 346 356 7 351 347 346 316 302 292 282 269 223 230 261 302 330 323 299 267 265 329 34 143 166 175 205 227 205 204 215 228 243 197
294 266 254 261 195 189 223 198 169 261 178 313 210 26 241 206 211 228 160 148 69 269 97 300 46 64 93 314 245 230 16 12 319 311 275 324 62 262 320 330 337 273 303 333 303 317 297 304 305 19 87 39 0 324 356 1 3 338 310 295 322 320 304 275 246 224 192 262 321 309 309 328 284 284 173 122 155 173 183 203 222 207 224 214 212 215 199
272 246 226 235 194 224 234 245 175 48 305 221 171 173 197 221 192 199 235 122 167 194 101 192 180 258 140 100 305 215 170 159 218 296 276 62 273 301 301 275 256 298 310 268 292 287 302 287 293 355 65 121 62 26 10 1 310 282 301 334 200 265 273 271 245 250 247 212 246 283 348 324 311 262 198 157 177 190 190 192 209 213 241 348 352 0 303
218 197 237 132 282 199 108 356 235 200 227 200 233 202 161 219 161 177 110 111 160 92 268 298 329 334 277 140 219 60 348 315 130 250 334 352 304 307 279 294 330 308 296 298 300 292 306 291 39 1 335 20 41 34 14 304 299 346 349 324 319 280 275 283 275 255 240 244 264 280 271 278 275 260 276 229 178 199 192 195 187 184 195 206 237 233 233
187 185 166 156 12 278 223 200 179 225 223 192 213 230 187 57 48 104 102 248 302 129 96 56 311 315 283 42 302 87 174 279 297 273 306 251 284 290 325 314 305 292 304 301 297 292 301 8 76 59 53 9 337 333 328 329 329 334 328 329 326 308 267 253 258 254 244 246 259 287 313 281 258 259 240 267 265 207 201 243 247 230 198 213 223 239 241
247 336 276 276 271 194 218 223 203 216 185 216 233 50 73 92 65 48 34 346 347 43 298 95 287 322 303 298 261 234 216 86 277 294 289 274 265 302 329 301 305 294 287 289 281 291 302 12 117 132 119 311 326 343 344 335 331 329 314 313 308 308 308 280 256 254 253 271 273 279 272 228 256 251 230 210 223 224 227 224 241 259 296 265 256 252 303
238 210 232 236 220 196 208 224 249 200 191 344 87 66 67 65 129 93 133 17 30 345 19 355 283 232 232 87 318 281 300 235 260 258 256 294 221 246 298 288 271 287 280 281 285 313 356 41 1 357 343 355 328 306 306 296 293 324 338 324 317 309 303 276 253 237 237 226 244 251 250 271 257 231 226 234 238 228 232 234 232 212 223 228 223 239 237
328 312 231 224 248 215 226 210 203 201 151 97 99 109 157 206 147 124 86 41 68 40 26 315 351 343 278 153 247 240 257 109 269 256 153 214 263 267 236 261 279 286 291 294 301 346 0 345 358 356 311 307 298 282 283 296 292 294 259 263 289 321 318 321 351 304 236 251 236 227 231 230 218 213 231 226 232 229 226 233 230 212 219 256 280 273 248
252 215 244 257 248 253 265 141 248 218 152 169 149 233 144 245 96 74 22 128 69 320 294 243 137 302 323 340 284 286 266 233 248 260 254 259 249 252 238 256 260 276 305 351 320 337 343 359 349 307 301 302 295 294 302 304 301 296 289 288 287 289 282 296 285 253 258 234 222 230 255 262 254 228 212 216 223 227 230 228 229 220 224 230 251 261 265
247 278 256 256 264 320 304 205 213 226 181 184 209 226 124 234 135 107 67 301 82 273 251 279 160 222 278 272 288 263 260 8 280 245 242 254 253 255 253 259 267 279 288 309 322 351 343 332 301 296 294 287 284 296 297 296 297 290 288 290 282 281 290 302 310 285 234 241 242 245 242 232 241 242 232 234 234 214 228 218 221 227 217 219 222 239 267
218 226 236 231 222 242 257 4 37 358 354 56 252 94 95 250 71 88 103 272 246 255 270 267 271 272 249 255 248 278 312 270 262 289 279 279 313 289 290 302 322 327 327 317 320 330 326 308 324 317 299 298 297 288 283 283 285 295 299 291 316 323 315 297 272 296 291 269 217 184 230 251 297 320 299 253 212 219 224 236 213 217 231 232 227 229 234